Location: Ocean City
(38.3360°N, 75.0850°W)
Time: 18:59:36
(UTC-04:00)

MOZHAYETS 4 - Pass Details

Date: 21 May 2019
Orbit: 661 x 681 km, 98.0° (Epoch: 25 June)

Event Time Altitude Azimuth Distance (km) Brightness Sun altitude
Exits shadow 04:03:07 24° 262° (W) 1,377 8.9 -17.0°
Maximum altitude 04:03:15 24° 265° (W) 1,376 8.9 -17.0°
Drops below altitude 10° 04:07:01 10° 320° (NW) 2,114 10.3 -16.5°
Sets 04:09:37 0° 334° (NNW) 3,029 11.3 -16.1°
